When you browse on this site, cookies collect data to enhance your experience and personalize the content and advertising you see.
Visit our Privacy Policy to learn more. By continuing to use the site, you agree to this use of cookies and data.
  • En España
  • Lista de países
  • Para 7 días
  • Temperatura del agua
  • El tiempo en el mapa
  • Informadores
  • user-avatar
    Iniciar sesión

    Tiempo cada hora Puerto Varas

    Hoy, 22 Enero, Miércoles

    Tiempo Temperatura Precipitaciones Viento Presión Humedad
    00:00 +14°C° 0 mm 3 mps 754 mmHg 85%
    01:00 +13°C° 0 mm 3 mps 753 mmHg 89%
    02:00 +13°C° 0 mm 3 mps 753 mmHg 90%
    03:00 +12°C° 0 mm 3 mps 753 mmHg 92%
    04:00 +12°C° 0 mm 3 mps 753 mmHg 93%
    05:00 +13°C° 0 mm 3 mps 753 mmHg 89%
    06:00 +14°C° 0 mm 3 mps 753 mmHg 85%
    07:00 +16°C° 0 mm 3 mps 753 mmHg 81%
    08:00 +18°C° 0 mm 3 mps 753 mmHg 74%
    09:00 +19°C° 0 mm 3 mps 753 mmHg 68%
    10:00 +21°C° 0 mm 4 mps 752 mmHg 61%
    11:00 +22°C° 0 mm 4 mps 752 mmHg 57%
    12:00 +22°C° 0 mm 4 mps 752 mmHg 52%
    13:00 +23°C° 0 mm 5 mps 752 mmHg 48%
    14:00 +23°C° 0 mm 4 mps 751 mmHg 48%
    15:00 +23°C° 0 mm 4 mps 751 mmHg 48%
    16:00 +23°C° 0 mm 4 mps 751 mmHg 48%
    17:00 +21°C° 0 mm 4 mps 751 mmHg 55%
    18:00 +20°C° 0 mm 4 mps 751 mmHg 61%
    19:00 +18°C° 0 mm 4 mps 751 mmHg 67%
    20:00 +17°C° 0 mm 4 mps 752 mmHg 71%
    21:00 +15°C° 0 mm 4 mps 752 mmHg 75%
    22:00 +15°C° 0 mm 4 mps 752 mmHg 79%
    23:00 +14°C° 0 mm 3 mps 752 mmHg 83%

    Mañana, 23 Enero, Jueves

    Tiempo Temperatura Precipitaciones Viento Presión Humedad
    00:00 +13°C° 0 mm 3 mps 752 mmHg 87%
    01:00 +13°C° 0 mm 2 mps 752 mmHg 92%
    02:00 +13°C° 0 mm 2 mps 753 mmHg 93%
    03:00 +13°C° 0 mm 2 mps 753 mmHg 95%
    04:00 +12°C° 0 mm 1 mps 753 mmHg 97%
    05:00 +13°C° 0 mm 1 mps 753 mmHg 93%
    06:00 +15°C° 0 mm 1 mps 754 mmHg 89%
    07:00 +16°C° 0 mm 1 mps 754 mmHg 85%
    08:00 +19°C° 0 mm 1 mps 754 mmHg 76%
    09:00 +21°C° 0 mm 1 mps 754 mmHg 66%
    10:00 +23°C° 0 mm 2 mps 755 mmHg 57%
    11:00 +24°C° 0 mm 2 mps 755 mmHg 54%
    12:00 +24°C° 0 mm 2 mps 755 mmHg 52%
    13:00 +25°C° 0 mm 3 mps 755 mmHg 50%
    14:00 +24°C° 0 mm 3 mps 755 mmHg 50%
    15:00 +22°C° 0 mm 3 mps 755 mmHg 51%
    16:00 +22°C° 0 mm 4 mps 755 mmHg 51%
    17:00 +20°C° 0 mm 3 mps 755 mmHg 55%
    18:00 +18°C° 0 mm 3 mps 756 mmHg 59%
    19:00 +16°C° 0 mm 3 mps 756 mmHg 63%
    20:00 +15°C° 0 mm 2 mps 756 mmHg 72%
    21:00 +13°C° 0 mm 2 mps 756 mmHg 82%
    22:00 +12°C° 0 mm 2 mps 757 mmHg 91%
    23:00 +10°C° 0 mm 2 mps 757 mmHg 92%

    Pasado mañana, 24 Enero, Viernes

    Tiempo Temperatura Precipitaciones Viento Presión Humedad
    00:00 +11°C° 0 mm 1 mps 757 mmHg 94%
    01:00 +10°C° 0 mm 1 mps 757 mmHg 96%
    02:00 +10°C° 0 mm 1 mps 757 mmHg 96%
    03:00 +10°C° 0 mm 1 mps 757 mmHg 96%
    04:00 +10°C° 0 mm 1 mps 757 mmHg 96%
    05:00 +11°C° 0 mm 1 mps 757 mmHg 91%
    06:00 +12°C° 0 mm 1 mps 758 mmHg 86%
    07:00 +13°C° 0 mm 1 mps 758 mmHg 81%
    08:00 +15°C° 0 mm 1 mps 757 mmHg 70%
    09:00 +17°C° 0 mm 2 mps 757 mmHg 59%
    10:00 +19°C° 0 mm 2 mps 757 mmHg 48%
    11:00 +20°C° 0 mm 2 mps 757 mmHg 45%
    12:00 +21°C° 0 mm 2 mps 757 mmHg 41%
    13:00 +22°C° 0 mm 3 mps 756 mmHg 37%
    14:00 +21°C° 0 mm 3 mps 756 mmHg 38%
    15:00 +21°C° 0 mm 3 mps 756 mmHg 39%
    16:00 +20°C° 0 mm 3 mps 756 mmHg 40%
    17:00 +19°C° 0 mm 3 mps 756 mmHg 48%
    18:00 +17°C° 0 mm 2 mps 757 mmHg 55%
    19:00 +16°C° 0 mm 2 mps 757 mmHg 63%
    20:00 +14°C° 0 mm 2 mps 757 mmHg 71%
    21:00 +13°C° 0 mm 1 mps 757 mmHg 80%
    22:00 +12°C° 0 mm 1 mps 758 mmHg 88%
    23:00 +12°C° 0 mm 1 mps 757 mmHg 90%

    25 Enero, Sábado

    Tiempo Temperatura Precipitaciones Viento Presión Humedad
    00:00 +11°C° 0 mm 1 mps 757 mmHg 91%
    01:00 +11°C° 0 mm 1 mps 757 mmHg 92%
    02:00 +11°C° 0 mm 1 mps 757 mmHg 90%
    03:00 +11°C° 0 mm 0 mps 757 mmHg 88%
    04:00 +11°C° 0 mm 0 mps 757 mmHg 86%
    05:00 +12°C° 0 mm 0 mps 757 mmHg 82%
    06:00 +13°C° 0 mm 0 mps 757 mmHg 77%
    07:00 +14°C° 0 mm 0 mps 757 mmHg 73%
    08:00 +16°C° 0 mm 0 mps 757 mmHg 68%
    09:00 +19°C° 0 mm 1 mps 757 mmHg 64%
    10:00 +21°C° 0 mm 1 mps 756 mmHg 59%
    11:00 +21°C° 0 mm 2 mps 756 mmHg 58%
    12:00 +23°C° 0 mm 2 mps 756 mmHg 58%
    13:00 +24°C° 0 mm 2 mps 755 mmHg 57%
    14:00 +24°C° 0 mm 3 mps 755 mmHg 60%
    15:00 +22°C° 0 mm 3 mps 755 mmHg 63%
    16:00 +22°C° 0 mm 3 mps 755 mmHg 66%
    17:00 +20°C° 0 mm 3 mps 755 mmHg 73%
    18:00 +19°C° 0 mm 2 mps 756 mmHg 80%
    19:00 +18°C° 0 mm 2 mps 756 mmHg 87%
    20:00 +17°C° 0 mm 2 mps 756 mmHg 89%
    21:00 +17°C° 0 mm 2 mps 756 mmHg 92%
    22:00 +16°C° 0 mm 2 mps 756 mmHg 95%
    23:00 +16°C° 0 mm 2 mps 756 mmHg 95%

    26 Enero, Domingo

    Tiempo Temperatura Precipitaciones Viento Presión Humedad
    00:00 +16°C° 0 mm 1 mps 756 mmHg 94%
    01:00 +16°C° 0 mm 1 mps 756 mmHg 94%
    02:00 +16°C° 0 mm 1 mps 756 mmHg 94%
    03:00 +16°C° 0 mm 2 mps 756 mmHg 95%
    04:00 +16°C° 0 mm 2 mps 756 mmHg 95%
    05:00 +16°C° 0 mm 2 mps 756 mmHg 92%
    06:00 +16°C° 0 mm 2 mps 756 mmHg 88%
    07:00 +16°C° 0 mm 2 mps 757 mmHg 85%
    08:00 +18°C° 0 mm 2 mps 757 mmHg 77%
    09:00 +19°C° 0 mm 3 mps 757 mmHg 68%
    10:00 +20°C° 0 mm 3 mps 757 mmHg 60%
    11:00 +21°C° 0 mm 3 mps 757 mmHg 54%
    12:00 +22°C° 0 mm 3 mps 757 mmHg 49%
    13:00 +24°C° 0 mm 3 mps 756 mmHg 44%
    14:00 +22°C° 0 mm 3 mps 756 mmHg 44%
    15:00 +22°C° 0 mm 3 mps 756 mmHg 44%
    16:00 +22°C° 0 mm 3 mps 756 mmHg 44%
    17:00 +20°C° 0 mm 3 mps 756 mmHg 52%
    18:00 +18°C° 0 mm 3 mps 756 mmHg 59%
    19:00 +16°C° 0 mm 2 mps 756 mmHg 67%
    20:00 +14°C° 0 mm 2 mps 757 mmHg 73%
    21:00 +13°C° 0 mm 2 mps 757 mmHg 80%
    22:00 +10°C° 0 mm 2 mps 757 mmHg 87%
    23:00 +11°C° 0 mm 1 mps 757 mmHg 89%

    27 Enero, Lunes

    Tiempo Temperatura Precipitaciones Viento Presión Humedad
    00:00 +10°C° 0 mm 1 mps 757 mmHg 91%
    01:00 +10°C° 0 mm 1 mps 757 mmHg 92%
    02:00 +10°C° 0 mm 1 mps 757 mmHg 92%
    03:00 +9°C° 0 mm 1 mps 756 mmHg 92%
    04:00 +9°C° 0 mm 1 mps 756 mmHg 92%
    05:00 +11°C° 0 mm 1 mps 756 mmHg 86%
    06:00 +12°C° 0 mm 1 mps 756 mmHg 80%
    07:00 +14°C° 0 mm 1 mps 755 mmHg 74%
    08:00 +16°C° 0 mm 1 mps 755 mmHg 65%
    09:00 +19°C° 0 mm 1 mps 755 mmHg 55%
    10:00 +21°C° 0 mm 1 mps 754 mmHg 46%
    11:00 +22°C° 0 mm 1 mps 754 mmHg 41%
    12:00 +23°C° 0 mm 2 mps 753 mmHg 37%
    13:00 +24°C° 0 mm 2 mps 753 mmHg 32%
    14:00 +24°C° 0 mm 2 mps 753 mmHg 31%
    15:00 +24°C° 0 mm 2 mps 752 mmHg 31%
    16:00 +24°C° 0 mm 2 mps 752 mmHg 31%
    17:00 +22°C° 0 mm 1 mps 752 mmHg 37%
    18:00 +20°C° 0 mm 1 mps 752 mmHg 44%
    19:00 +18°C° 0 mm 1 mps 752 mmHg 51%
    20:00 +18°C° 0 mm 1 mps 752 mmHg 55%
    21:00 +16°C° 0 mm 1 mps 752 mmHg 60%
    22:00 +16°C° 0 mm 1 mps 752 mmHg 65%
    23:00 +15°C° 0.6 mm 1 mps 752 mmHg 74%
    Mostrar más